Location: Melbourne
(37.8666°S, 145.1333°E)
Time: 20:18:23
(UTC+10:00)

Daily predictions for brighter satellites

Satellite Brightness Start Highest point End
(mag) Time Altitude Azimuth Time Altitude Azimuth Time Altitude Azimuth
YAOGAN 1 4.0 17:34:10 10° SE 17:37:21 19° E 17:40:29 10° NE
GPS 2-05 Rocket1 3.7 17:34:03 10° W 17:37:31 48° N 17:40:50 10° ENE
Cosmos 2333 Rocket 3.1 17:35:32 10° SSW 17:41:11 57° WNW 17:46:43 10° N
ATLAS 2AS CENTAUR R/B 2.9 17:35:58 10° N 17:42:22 49° ENE 17:48:19 10° SE
Cosmos 2297 Rocket 2.6 17:37:02 10° NNW 17:42:39 67° WSW 17:48:20 10° SSE
Cosmos 1812 3.9 17:43:11 10° SSE 17:46:23 23° ESE 17:49:33 10° NE
Cosmos 1300 Rocket 4.4 17:42:43 10° NNE 17:46:36 30° E 17:50:33 10° SSE
Aureole 2 Rocket 4.4 17:43:23 10° SSE 17:46:41 20° ESE 17:50:01 10° ENE
COSMO-SKYMED 1 2.9 17:44:10 10° N 17:48:31 76° WNW 17:52:57 10° SSW
ADEOS II 3.9 17:45:46 10° S 17:50:26 32° WSW 17:55:04 10° NW
Cosmos 494 Rocket 4.5 17:51:08 10° S 17:56:00 37° ESE 18:00:46 10° NE
SMAP 4.1 17:52:05 10° SE 17:56:02 26° E 17:59:56 10° NNE
Meteor 1-20 Rocket 4.3 17:55:39 10° N 18:01:09 55° E 18:06:36 10° SSE
Cosmos 1821 Rocket 4.0 17:55:23 10° N 18:01:40 72° E 18:07:57 10° S
CZ-4 R/B 1.6 18:01:16 10° SSE 18:05:31 58° E 18:09:40 10° N
Cosmos 921 Rocket 3.0 18:05:26 10° N 18:09:45 64° ENE 18:14:14 10° SSE
Cosmos 2227 4.4 18:06:45 10° N 18:12:22 56° ENE 18:18:03 10° SSE
SPOT 3 Rocket 3.5 18:07:24 10° SSE 18:12:38 75° ENE 18:17:47 10° N
Cosmos 2263 Rocket 4.0 18:11:10 10° ENE 18:12:39 12° ENE 18:12:39 12° ENE
Cosmos 2237 Rocket 4.2 18:09:10 10° SW 18:14:11 33° WNW 18:19:09 10° NNW
IDEFIX/ARIANE 42P 3.8 18:12:02 15° ESE 18:14:35 21° E 18:18:29 10° NE
Meteor 1-18 Rocket 4.4 18:14:29 10° S 18:20:31 84° W 18:26:28 10° N
Meteor 2-21 Rocket 4.4 18:17:12 10° N 18:23:22 79° E 18:29:41 10° S
Okean 1 3.3 18:22:51 10° S 18:26:59 69° E 18:31:03 10° NNE
Cosmos 1934 Rocket 4.0 18:20:56 10° N 18:27:02 85° W 18:33:12 10° S
Cosmos 1242 Rocket 2.5 18:24:11 10° S 18:27:53 87° E 18:31:35 10° N
PAYLOAD A 4.2 18:23:31 10° SSE 18:28:39 56° E 18:33:54 10° N
CORIOLIS 4.3 18:24:07 10° SSE 18:29:23 51° E 18:34:35 10° N
SJ-12 4.1 18:26:34 13° SSE 18:30:10 50° E 18:34:11 10° N
DELTA 2 R/B (1) 3.6 18:25:35 10° WNW 18:31:11 80° NNE 18:34:24 26° E
COBE Rocket 4.3 18:29:29 10° S 18:34:27 67° WSW 18:39:30 10° NNW
Abrixas 2.5 18:31:52 10° SW 18:35:04 72° SE 18:35:53 45° ENE
ASTRO E2 4.5 18:32:06 10° NW 18:35:20 23° NNE 18:37:00 18° NE
Okean 1-7 Rocket 3.5 18:31:05 10° S 18:35:42 81° E 18:40:12 10° N
AQUARIUS 4.1 18:33:05 10° SSE 18:37:40 76° E 18:42:11 10° N
Cosmos 1025 Rocket 3.6 18:33:58 10° S 18:38:04 35° ESE 18:42:08 10° NE
Meteor 1-11 Rocket 3.8 18:33:49 10° N 18:39:36 58° E 18:45:20 10° SSE
CZ-4C R/B 4.2 18:37:34 10° S 18:39:23 12° SSE 18:39:23 12° SSE
SL-16 R/B 3.4 18:36:51 10° SW 18:42:16 45° WNW 18:47:38 10° N
Meteor 2-15 Rocket 4.3 18:42:22 10° S 18:48:35 75° E 18:54:42 10° NNE
BREEZE-M DEB (TANK) 3.7 18:47:07 10° W 18:49:21 31° SSW 18:50:08 27° S
CZ-2C R/B 2.5 18:47:41 16° SSE 18:51:53 62° E 18:57:03 10° N
SJ-7 4.4 18:50:53 18° SSE 18:54:06 89° ENE 18:58:23 10° NNW
COSMOS 2455 2.9 18:48:53 10° SSW 18:54:57 81° WNW 19:00:58 10° NNE
Cosmos 2061 Rocket 4.3 18:49:02 10° NNE 18:55:05 44° E 18:58:49 23° SSE
Cosmos 2173 Rocket 4.3 18:51:08 10° NNE 18:57:03 45° E 19:00:06 27° SE
Lacrosse 4 Rocket 3.1 18:57:16 10° S 18:59:00 21° S 18:59:00 21° S
Okean 1 Rocket 4.4 18:57:18 10° NNW 19:01:33 41° W 19:05:53 10° S
Meteor 1-23 Rocket 4.3 18:59:11 10° S 19:04:39 49° ESE 19:10:04 10° NNE
Meteor 1-13 Rocket 4.5 18:59:39 10° SSW 19:05:42 78° W 19:11:38 10° N
Cosmos 1536 2.8 19:02:46 10° N 19:06:21 65° NNE 19:06:21 65° NNE
Cosmos 1603 4.0 19:05:36 10° SSW 19:11:20 69° WNW 19:16:59 10° N
YAOGAN 1 4.2 19:09:32 10° S 19:13:30 34° WSW 19:17:26 10° NW
Cosmos 1802 Rocket 4.0 19:08:53 10° NNE 19:14:55 54° E 19:15:39 51° ESE
ATLAS 3B R/B 3.0 19:13:11 10° SW 19:20:18 74° WNW 19:27:47 10° NNE
GPS 2-04 Rocket1 3.8 19:18:21 10° WNW 19:21:36 39° NNW 19:21:36 39° NNW
Meteor 2-4 Rocket 3.5 19:17:46 10° S 19:23:20 75° E 19:28:59 10° NNE
SL-19 R/B 4.5 19:21:04 20° S 19:25:01 71° WSW 19:30:40 10° NNW
Meteor 1-19 Rocket 4.4 19:21:21 10° SSW 19:27:15 73° W 19:32:59 10° N
ATLAS 2AS CENTAUR R/B 4.0 19:27:43 10° WNW 19:33:20 30° SW 19:36:53 18° S
Cosmos 1371 Rocket 4.0 19:30:15 10° NNW 19:35:09 76° NW 19:35:09 76° NW
Cosmos 1943 3.5 19:29:52 10° SSW 19:34:14 54° S 19:34:14 54° S
Kakehashi 4.2 19:33:54 10° WNW 19:42:23 47° N 19:43:18 44° NNE
Cosmos 1459 Rocket 4.3 19:46:39 10° NNW 19:52:45 62° W 19:55:02 38° SSW
IDEFIX/ARIANE 42P 3.6 19:52:51 34° SSW 19:54:19 42° WSW 19:59:13 10° NW
Cosmos 2263 Rocket 3.0 19:50:40 10° NNW 19:54:25 44° NNW 19:54:25 44° NNW
USA 238 DEB 3.7 19:49:08 10° SSW 19:55:59 82° SSW 19:55:59 82° SSW
USA 238 3.7 19:49:13 10° SSW 19:56:02 81° SSW 19:56:02 81° SSW
